Weather History for KE38 - February, 2014

Change the Weather History Date:

Monday, February 24, 2014

  Actual Average (KMRF) Record (KMRF)
Temperature  
Mean Temperature 62 °F -  
Max Temperature 78 °F 58 °F 77 °F (1998)
Min Temperature 46 °F 29 °F 21 °F (2015)
Degree Days  
Heating Degree Days 3    
Growing Degree Days 12 (Base 50)    
Moisture  
Dew Point 27 °F    
Average Humidity 28    
Maximum Humidity 52    
Minimum Humidity 11    
Precipitation  
Precipitation 0.00 in - - ()
Sea Level Pressure  
Sea Level Pressure 30.13 in    
Wind  
Wind Speed 5 mph (SSW)    
Max Wind Speed 12 mph    
Max Gust Speed -    
Visibility 10 miles    
Events      
Averages and records for this station are not official NWS values.
T = Trace of Precipitation, MM = Missing Value Source: NWS Daily Summary

Daily Weather History Graph

Daily Weather History Graph

Search for Another Location

Airport or City:

Trip Planner

Search our weather history database for the weather conditions in past years. The results will help you decide how hot, cold, wet, or windy it might be!

Date:

Astronomy

Feb. 24, 2014 Rise Set
Actual Time 7:26 AM CST 6:50 PM CST
Civil Twilight 7:01 AM CST 7:14 PM CST
Nautical Twilight 6:34 AM CST 7:42 PM CST
Astronomical Twilight 6:06 AM CST 8:10 PM CST
Moon 3:14 AM CST (2/24) 2:05 PM CST (2/24)
Length of Visible Light 12h 12m
Length of Day
11h 23m
Waning Crescent, 28% of the Moon is Illuminated
Feb 24
Waning Crescent
Mar 1
New
Mar 8
First Quarter
Mar 16
Full
Mar 23
Last Quarter

Hourly Weather History & Observations

Time (CST) Temp. Windchill Dew Point Humidity Pressure Visibility Wind Dir Wind Speed Gust Speed Precip Events Conditions
12:20 AM 63.9 °F - 32.5 °F 31% 30.17 in 10.0 mi WSW 8.1 mph - N/A   Mostly Cloudy
12:35 AM 62.4 °F - 32.7 °F 33% 30.15 in 10.0 mi Calm Calm - N/A   Scattered Clouds
12:55 AM 60.3 °F - 32.0 °F 34% 30.15 in 10.0 mi SSW 3.5 mph - N/A   Clear
1:15 AM 58.3 °F - 31.3 °F 36% 30.15 in 10.0 mi SSW 5.8 mph - N/A   Clear
1:35 AM 57.9 °F - 29.5 °F 34% 30.14 in 10.0 mi SSW 8.1 mph - N/A   Scattered Clouds
1:55 AM 57.6 °F - 28.2 °F 33% 30.13 in 10.0 mi South 4.6 mph - N/A   Mostly Cloudy
2:15 AM 57.4 °F - 27.7 °F 32% 30.12 in 10.0 mi South 6.9 mph - N/A   Scattered Clouds
2:35 AM 56.5 °F - 28.4 °F 34% 30.12 in 10.0 mi WSW 4.6 mph - N/A   Scattered Clouds
2:55 AM 59.2 °F - 31.3 °F 35% 30.11 in 10.0 mi South 4.6 mph - N/A   Clear
3:15 AM 56.8 °F - 28.9 °F 34% 30.11 in 10.0 mi SSW 8.1 mph - N/A   Clear
3:35 AM 56.5 °F - 27.3 °F 33% 30.10 in 10.0 mi SSW 9.2 mph - N/A   Clear
3:55 AM 56.1 °F - 25.2 °F 30% 30.11 in 10.0 mi SW 11.5 mph - N/A   Clear
4:15 AM 52.7 °F - 27.9 °F 38% 30.10 in 10.0 mi SSW 5.8 mph - N/A   Clear
4:35 AM 51.6 °F - 28.4 °F 41% 30.10 in 10.0 mi WSW 8.1 mph - N/A   Clear
4:55 AM 51.6 °F - 26.6 °F 38% 30.11 in 10.0 mi West 8.1 mph - N/A   Clear
5:15 AM 51.8 °F - 26.8 °F 38% 30.11 in 10.0 mi West 6.9 mph - N/A   Clear
5:35 AM 49.5 °F - 24.8 °F 38% 30.11 in 10.0 mi SW 6.9 mph - N/A   Clear
5:55 AM 48.2 °F - 22.1 °F 36% 30.12 in 10.0 mi WSW 6.9 mph - N/A   Clear
6:15 AM 48.9 °F - 24.1 °F 38% 30.13 in 10.0 mi Calm Calm - N/A   Clear
6:35 AM 48.9 °F - 22.8 °F 36% 30.14 in 10.0 mi Calm Calm - N/A   Clear
6:55 AM 46.2 °F 45.0 °F 21.7 °F 38% 30.15 in 10.0 mi SSW 3.5 mph - N/A   Clear
7:15 AM 47.1 °F - 21.6 °F 36% 30.15 in 10.0 mi South 6.9 mph - N/A   Clear
7:35 AM 51.6 °F - 20.8 °F 30% 30.15 in 10.0 mi SSW 9.2 mph - N/A   Clear
7:55 AM 50.4 °F - 21.9 °F 33% 30.17 in 10.0 mi SW 6.9 mph - N/A   Clear
8:15 AM 54.5 °F - 24.1 °F 31% 30.18 in 10.0 mi WSW 4.6 mph - N/A   Clear
8:35 AM 54.1 °F - 23.9 °F 31% 30.19 in 10.0 mi West 6.9 mph - N/A   Clear
8:55 AM 56.7 °F - 23.9 °F 28% 30.19 in 10.0 mi Calm Calm - N/A   Clear
9:15 AM 59.7 °F - 23.4 °F 25% 30.20 in 10.0 mi SW 4.6 mph - N/A   Clear
9:35 AM 63.9 °F - 22.6 °F 21% 30.20 in 10.0 mi Calm Calm - N/A   Clear
9:55 AM 63.9 °F - 23.2 °F 21% 30.20 in 10.0 mi Calm Calm - N/A   Clear
10:15 AM 67.6 °F - 24.6 °F 20% 30.20 in 10.0 mi Calm Calm - N/A   Clear
10:35 AM 69.3 °F - 27.9 °F 21% 30.20 in 10.0 mi NW 3.5 mph - N/A   Clear
10:55 AM 70.2 °F - 25.9 °F 19% 30.20 in 10.0 mi Calm Calm - N/A   Clear
11:15 AM 71.6 °F - 25.0 °F 17% 30.19 in 10.0 mi NNE 4.6 mph - N/A   Clear
11:35 AM 72.7 °F - 24.1 °F 16% 30.19 in 10.0 mi NE 3.5 mph - N/A   Clear
11:55 AM 74.5 °F - 21.9 °F 14% 30.18 in 10.0 mi NE 3.5 mph - N/A   Clear
12:15 PM 75.6 °F - 22.1 °F 14% 30.17 in 10.0 mi NNE 9.2 mph - N/A   Clear
12:35 PM 75.0 °F - 21.4 °F 13% 30.16 in 10.0 mi NNW 5.8 mph - N/A   Clear
12:55 PM 75.6 °F - 21.4 °F 13% 30.15 in 10.0 mi Calm Calm - N/A   Clear
1:15 PM 77.7 °F - 22.3 °F 13% 30.13 in 10.0 mi NNW 6.9 mph - N/A   Clear
1:35 PM 77.4 °F - 21.4 °F 12% 30.12 in 10.0 mi Calm Calm - N/A   Clear
1:55 PM 78.6 °F - 18.9 °F 11% 30.11 in 10.0 mi WSW 9.2 mph - N/A   Clear
2:15 PM 76.6 °F - 18.3 °F 11% 30.10 in 10.0 mi SW 6.9 mph - N/A   Clear
2:35 PM 76.5 °F - 18.5 °F 11% 30.09 in 10.0 mi WSW 6.9 mph - N/A   Clear
2:55 PM 75.7 °F - 18.0 °F 11% 30.09 in 10.0 mi SW 5.8 mph - N/A   Clear
3:15 PM 76.1 °F - 18.1 °F 11% 30.09 in 10.0 mi SSW 4.6 mph - N/A   Clear
3:35 PM 75.6 °F - 17.4 °F 11% 30.09 in 10.0 mi SW 5.8 mph - N/A   Clear
3:55 PM 75.2 °F - 16.9 °F 11% 30.09 in 10.0 mi SW 6.9 mph - N/A   Clear
4:15 PM 74.8 °F - 17.4 °F 11% 30.09 in 10.0 mi WSW 4.6 mph - N/A   Clear
4:35 PM 75.0 °F - 17.8 °F 12% 30.08 in 10.0 mi Calm Calm - N/A   Clear
4:55 PM 74.8 °F - 21.4 °F 14% 30.08 in 10.0 mi NE 5.8 mph - N/A   Clear
5:15 PM 74.3 °F - 21.7 °F 14% 30.07 in 10.0 mi ENE 9.2 mph - N/A   Clear
5:35 PM 73.4 °F - 22.1 °F 15% 30.07 in 10.0 mi East 6.9 mph - N/A   Clear
5:55 PM 73.0 °F - 22.5 °F 15% 30.08 in 10.0 mi ENE 11.5 mph - N/A   Clear
6:15 PM 71.6 °F - 22.5 °F 16% 30.08 in 10.0 mi East 10.4 mph - N/A   Clear
6:35 PM 69.4 °F - 22.6 °F 17% 30.09 in 10.0 mi East 6.9 mph - N/A   Clear
6:55 PM 67.8 °F - 25.9 °F 21% 30.09 in 10.0 mi East 8.1 mph - N/A   Clear
7:15 PM 66.9 °F - 39.4 °F 36% 30.09 in 10.0 mi SE 8.1 mph - N/A   Clear
7:35 PM 64.6 °F - 39.6 °F 40% 30.11 in 10.0 mi SSE 10.4 mph - N/A   Clear
7:55 PM 63.1 °F - 39.2 °F 41% 30.11 in 10.0 mi SSE 5.8 mph - N/A   Clear
8:15 PM 60.1 °F - 37.9 °F 44% 30.11 in 10.0 mi Calm Calm - N/A   Clear
8:35 PM 59.0 °F - 37.4 °F 45% 30.11 in 10.0 mi West 3.5 mph - N/A   Clear
8:55 PM 59.4 °F - 37.9 °F 45% 30.12 in 10.0 mi SW 4.6 mph - N/A   Clear
9:15 PM 58.6 °F - 36.3 °F 43% 30.12 in 10.0 mi SSW 8.1 mph - N/A   Clear
9:35 PM 58.8 °F - 36.1 °F 43% 30.13 in 10.0 mi South 3.5 mph - N/A   Clear
9:55 PM 52.3 °F - 32.5 °F 47% 30.13 in 10.0 mi Calm Calm - N/A   Clear
10:15 PM 55.4 °F - 35.8 °F 48% 30.13 in 10.0 mi South 3.5 mph - N/A   Clear
10:35 PM 58.1 °F - 36.5 °F 44% 30.14 in 10.0 mi South 4.6 mph - N/A   Clear
10:55 PM 58.1 °F - 36.1 °F 44% 30.13 in 10.0 mi Calm Calm - N/A   Clear
11:15 PM 50.2 °F - 33.1 °F 52% 30.13 in 10.0 mi SW 3.5 mph - N/A   Clear
11:35 PM 54.7 °F - 36.1 °F 50% 30.13 in 10.0 mi SSW 3.5 mph - N/A   Clear
11:55 PM 55.2 °F - 36.0 °F 48% 30.12 in 10.0 mi Calm Calm - N/A   Clear